User: anonymous   Login
Location: NJAA Observatory
(40.6819°N, 74.8979°W)
Time: 13:41:20
(UTC-04:00)
Language:

Iridium 4 - Orbit

View from above orbital plane
View from above orbital plane
View from above satellite
View from above satellite

Ground track
Ground track

The orbit data is extracted from the following two-line orbital elements,

1 24796U 97020E   17085.80078133 +.00000089 +00000-0 +24277-4 0  9990
2 24796 086.4002 352.3532 0002190 084.8883 335.8256 14.35144914041456
Epoch (UTC): 26 March 2017 19:13:07
Eccentricity: 0.0002190
inclination: 86.4002°
perigee height: 773 km
apogee height: 776 km
right ascension of ascending node: 352.3532°
argument of perigee: 84.8883°
revolutions per day: 14.35144914
mean anomaly at epoch: 335.8256°
orbit number at epoch: 4145

The dashed part of the orbit path shows where the satellite is in the earth's shadow,  

DLR